COSMOS 2251 DEB, 37331

Orbit data source: Space-Track

COSMOS 2251 DEB, 37331 is space debris in LEO originally from a launch on Wed, 16 Jun 1993 UTC launched from the Plesetsk Missile And Space Complex (PKMTR). The debris from Iridium 33, an American commercial communications satellite, has been tracked extensively since its accidental collision with the defunct Russian satellite Cosmos 2251 in 2009. This event, occurring at high speed in low Earth orbit (LEO), generated thousands of pieces of space debris, significantly increasing the risk of further collisions. The Iridium 33 debris cloud has impacted space traffic management and orbital debris mitigation strategies, making it a subject of ongoing study in space situational awareness.

Loading next visibility...
Identifier
37331, 1993-036BKX
Orbit
LEO
Country
Flag of CISCIS
Related business
Manufacturer
Unknown
Mission
Spacecraft
Bus & Motor
Unknown
Mass
Unknown
Launch date (UTC)
1993-06-16 (33 years ago)
Launch vehicle
Unknown
Launch site
Plesetsk Missile And Space Complex (PKMTR)
Object type
Payload
Rocket body
Debris
Shape & HBR
Unknown shape, 0.1 m
Radar Cross Section
Small (<0.1 m²)

Expand to show TLE details & history
Last TLE update: 2 days ago

TLE from 2 days ago
0 COSMOS 2251 DEB
1 37331U 93036BKX 26119.57027051  .00001130  00000-0  39456-3 0  9999
2 37331  74.0732 175.7042 0055627 157.7226 202.6362 14.35518190867372
Epoch: 2026-04-29T13:41Z
TLE epoch observation values (Epoch: 2026-04-29T13:41:11.372Z)
Latitude
-0.00001°
Longitude
112.87748°
Altitude
812.713 km
Speed
7.428 km/s
True Right ascension
11h 42m 49s
True Declination
0° 00' 00"
Sunlit
Object was in full shadow at epoch
Visualization orbit readout
Latitude
Unknown
Longitude
Unknown
Altitude
Unknown
Speed
Unknown
Apparent Right ascension
Unknown
Apparent Declination
Unknown
Sunlit
N/A
Visualization observer readout
Local Sidereal Time
00:11:58
Azimuth
Unknown
Elevation
Unknown
Doppler factor
Unknown
Orbital elements
Apogee altitude
810.734 km
Perigee altitude
731.198 km
Semi-major axis
7,149.103 km
Eccentricity
0.00556
Inclination
74.0732°
RAAN
175.7042°
Arg. of periapsis
157.7226°
True anomaly
202.39243°
Mean anomaly
202.6362°
Eccentric anomaly
202.51416°
Mean motion
3.59059 °/min
Orbital period
100.26 mins
BSTAR
0.00039456
Loading maneuver chart data...
Computing Atmospheric mass density...

Documentation

Showing up to 5 results
|